CZ-6A DEB

Satellite information

Favourite Embed

Satellite Type and Status

DEBRISIN ORBIT

Key statistics

Satellite CZ-6A DEB at a glance.

Uptime

334

Days in orbit

Revolutions

≈ 14.6

Per day

Orbit

LEO

Low Earth Orbit

Inclination

89.0

Latest

Satellite identification and parameters

Extended collection of information and parameters for CZ-6A DEB.

Object identification

Identified? True

Debris? True

Object name: CZ-6A DEB

International designator: 2024-140AX

Object number (NORAD): 60646

Object ID (CCSDS): 60646

Country: PEOPLES REPUBLIC OF CHINA (PRC)

Current information (Y/N): Y

RCS size: SMALL

Orbital parameters

Period: 98.66 minutes

Inclination: 89.0143 deg

SMA: 7072.758 km

Apoapsis: 756.565 km

Periapsis: 632.682 km

RAAN: 312.0691 deg

Eccentricy: 0.0087578

Argument of periapsis: 8.8287 deg

Mean anomaly: 351.444 deg

Mean motion: 14.59551868 rev/day

Mean motion (dot): 0.00006511 rev/day2

B* drag term: 0.0012954 1/REarth

Two-line elements (TLE)

Creation date: July 5, 2025, 5:45 p.m.

Reference frame: TEME

Reference center: EARTH

Epoch: July 5, 2025, 9:06 a.m. UTC

TLE line 0: 0 CZ-6A DEB

TLE line 1: 1 60646U 24140AX 25186.37930224 .00006511 00000-0 12954-2 0 9991

TLE line 2: 2 60646 89.0143 312.0691 0087578 8.8287 351.4440 14.59551868 48127

Live tracking on map

Real-time ground track for satellite CZ-6A DEB.

In-orbit conjunctions

A list of the most updated potential collisions computed for object CZ-6A DEB.

Target Orbit TCA Probability of collision Miss distance Type
CZ-4 DEB SSO 2025-02-18 02:00:57 0.0001094587 426.0 (m) DEBRIS
NOAA 16 DEB SSO 2025-02-08 06:13:20 0.0001184328 863.0 (m) DEBRIS
CZ-6A DEB LEO 2025-01-25 01:10:51 0.001170563 168.0 (m) DEBRIS
NOAA 16 DEB SSO 2024-11-10 02:40:40 0.000507444 681.0 (m) DEBRIS
CZ-6A DEB LEO 2024-10-25 07:19:36 0.0005761287 443.0 (m) DEBRIS

Associated space launch

18 Low Earth Orbit communication satellites with Ku, Q and V band payloads for the G60 constellation operated by Shanghai Spacecom Satellite Technology (SSST) with funding backed by the Shanghai local government. Initial constellation will consist of 1296 satellites by 2027 with long term plans to expand it to 12000 satellites.

CZ-6A DEB was lifted into orbit during the mission ‘Long March 6A | G60 Polar Group 01’, on board a Long March 6A space rocket.

The launch took place on Aug. 6, 2024, 6:42 a.m. from Launch Complex 9A.

For more information about the launch, click the button.

Launch to space Long March 6A | G60 Polar Group 01
Long March 6A | G60 Polar Group 01

Agency: N/A

Status: Launch Successful

Launch date: Aug. 6, 2024, 6:42 a.m. UTC

Rocket: Long March 6A

Launch pad: Launch Complex 9A

Location: Taiyuan Satellite Launch Center, People's Republic of China

...

Latest news about this satellite

News about space launch
Brightness of first Chinese broadband constellation satellites alarms astronomers

The first satellites of a Chinese broadband constellation are significantly brighter than those of Western systems, posing a new challenge for astronomers.

News about space launch
Chinese rocket stage breaks up into cloud of more than 700 pieces of space debris

HELSINKI — A Chinese Long March 6A rocket’s upper stage has fragmented into a cloud of over 700 pieces of space debris, adding to concerns about long-term orbital safety. China […]

News about space launch
China's Thousand Sails Megaconstellation Kicks Off with Dangerous Debris Field

China's Thousand Sails Megaconstellation Kicks Off with Dangerous Debris Field


Newsletter sign-up

Weekly statistics, charts and insights to help you stay on top of the space industry.